Total_Precipitation_Accumulation
1.29 1.26 1.20 1.25 1.14 1.04 1.11 1.19 1.22 1.25 1.15 1.01 0.95 0.96 1.04 0.97 0.98 1.13 1.49 2.01 2.55 3.04 3.27 3.21 3.01 2.85 2.87 2.87 3.02 3.22 3.41 3.56 3.40 3.22 3.04 2.89 2.97 3.03 2.73 2.66 2.82 3.09 3.40
1.31 1.37 1.31 1.25 1.18 1.09 1.11 1.29 1.27 1.29 1.27 1.20 1.03 1.03 1.05 0.99 0.99 1.04 1.20 1.61 2.02 2.51 3.08 3.46 3.26 2.94 2.70 2.67 2.72 2.91 3.20 3.28 2.99 2.90 2.93 2.98 3.14 3.24 2.85 2.68 2.64 2.68 2.97
1.16 1.23 1.26 1.20 1.18 1.19 1.20 1.26 1.31 1.38 1.30 1.20 1.15 1.11 1.09 1.04 0.98 1.04 1.00 1.16 1.33 1.79 2.38 2.89 3.18 3.14 2.98 2.86 2.81 2.92 3.14 3.03 2.75 2.82 2.99 3.01 3.04 3.10 3.04 2.83 2.61 2.54 2.72
1.23 1.22 1.26 1.24 1.27 1.31 1.30 1.34 1.41 1.41 1.37 1.36 1.30 1.26 1.12 1.09 1.04 1.05 0.99 0.99 1.08 1.15 1.50 1.94 2.41 2.78 2.99 3.05 3.18 3.34 3.19 2.87 2.63 2.62 2.80 2.68 2.60 2.69 2.82 2.80 2.56 2.38 2.32
1.32 1.43 1.47 1.47 1.42 1.45 1.45 1.40 1.43 1.35 1.35 1.36 1.28 1.30 1.25 1.20 1.14 1.01 1.04 1.01 1.03 1.00 1.11 1.25 1.52 1.83 2.20 2.64 3.18 3.48 3.10 2.82 2.63 2.46 2.43 2.36 2.38 2.47 2.50 2.37 2.26 2.14 2.11
1.57 1.76 1.83 1.73 1.69 1.68 1.67 1.61 1.65 1.54 1.43 1.46 1.34 1.33 1.29 1.20 1.23 1.19 1.18 1.11 1.15 1.10 1.05 1.01 1.08 1.10 1.35 1.86 2.59 3.06 3.01 2.84 2.66 2.53 2.36 2.30 2.39 2.48 2.44 2.33 2.24 2.22 2.25
1.89 2.04 1.95 2.03 2.04 1.91 1.90 1.96 2.01 1.96 1.77 1.63 1.68 1.57 1.32 1.14 1.21 1.18 1.18 1.23 1.24 1.32 1.32 1.17 1.06 1.04 1.03 1.26 1.84 2.48 2.85 2.84 2.82 2.68 2.55 2.47 2.39 2.41 2.40 2.34 2.29 2.30 2.42
2.10 2.14 2.22 2.31 2.33 2.34 2.28 2.17 2.28 2.43 2.16 1.92 2.02 2.30 1.92 1.58 1.23 1.01 1.12 1.21 1.25 1.49 1.52 1.31 1.10 1.05 1.05 1.18 1.20 1.58 2.08 2.51 2.76 2.83 2.74 2.63 2.53 2.53 2.58 2.44 2.28 2.34 2.39
2.32 2.35 2.41 2.47 2.48 2.34 2.34 2.45 2.58 2.92 2.72 2.35 2.14 2.41 2.26 1.95 1.66 1.22 1.10 1.19 1.27 1.42 1.52 1.56 1.45 1.34 1.24 1.27 1.28 1.12 1.35 1.85 2.35 2.77 2.86 2.81 2.65 2.83 3.04 2.78 2.40 2.23 2.08
2.30 2.40 2.40 2.38 2.35 2.29 2.36 2.44 2.50 2.93 3.14 2.84 2.48 2.06 1.84 1.81 1.93 1.67 1.25 1.18 1.28 1.29 1.39 1.48 1.45 1.54 1.48 1.49 1.51 1.27 1.17 1.46 1.94 2.51 2.92 3.22 2.99 2.78 2.80 2.89 2.69 2.32 2.04
2.20 2.21 2.19 2.28 2.29 2.32 2.38 2.55 2.69 2.97 3.01 3.01 2.81 2.57 2.34 2.02 1.69 1.80 1.75 1.46 1.38 1.29 1.37 1.49 1.54 1.66 1.69 1.71 1.87 1.61 1.29 1.21 1.49 2.01 2.61 3.19 3.35 3.10 2.81 2.76 2.70 2.51 2.21
2.17 2.08 2.02 2.09 2.21 2.35 2.39 2.48 2.65 2.92 3.04 3.14 3.05 2.75 2.64 2.48 2.20 2.10 1.87 1.72 1.67 1.44 1.39 1.45 1.49 1.63 1.80 1.87 1.86 1.98 1.62 1.24 1.20 1.51 1.89 2.46 3.14 3.39 3.21 3.07 2.99 2.90 2.66
1.85 1.89 1.94 2.02 2.16 2.25 2.32 2.44 2.58 2.64 2.77 3.02 3.04 2.86 2.64 2.44 2.43 2.31 2.21 1.91 1.71 1.48 1.45 1.47 1.45 1.50 1.54 1.82 1.95 2.05 1.71 1.35 1.12 1.16 1.33 1.65 2.27 2.85 3.14 3.14 3.14 3.27 3.30
1.74 1.69 1.72 1.79 2.01 2.20 2.28 2.38 2.39 2.38 2.44 2.63 2.64 2.72 2.68 2.41 2.38 2.28 2.29 2.41 2.11 1.85 1.65 1.46 1.38 1.44 1.47 1.66 1.98 2.07 1.62 1.45 1.20 1.07 1.09 1.33 1.59 1.82 2.24 2.78 3.10 3.31 3.53
1.53 1.47 1.51 1.54 1.66 1.88 2.12 2.27 2.23 2.16 2.13 2.29 2.36 2.47 2.60 2.64 2.54 2.43 2.41 2.51 2.52 2.25 1.99 1.73 1.52 1.40 1.47 1.58 1.98 1.87 1.63 1.52 1.40 1.21 1.09 1.17 1.26 1.40 1.55 1.92 2.26 2.48 2.69
1.36 1.29 1.30 1.41 1.57 1.68 1.85 2.05 2.13 2.07 2.08 2.17 2.28 2.41 2.56 2.70 2.73 2.51 2.47 2.47 2.38 2.35 2.19 1.80 1.53 1.46 1.54 1.52 1.88 1.86 1.77 1.80 1.55 1.39 1.29 1.25 1.30 1.30 1.34 1.48 1.59 1.72 1.74
1.20 1.20 1.34 1.41 1.48 1.57 1.75 1.99 2.15 2.15 2.07 2.08 2.08 2.17 2.35 2.46 2.69 2.66 2.56 2.48 2.37 2.26 2.16 1.94 1.69 1.53 1.61 1.66 1.77 1.88 1.85 1.73 1.52 1.49 1.35 1.29 1.29 1.32 1.31 1.36 1.48 1.48 1.43
0.94 1.05 1.19 1.23 1.28 1.31 1.51 1.80 2.00 2.04 2.01 1.91 1.86 1.96 2.18 2.36 2.59 2.71 2.67 2.54 2.47 2.34 2.25 2.22 2.04 1.80 1.71 1.73 1.89 2.00 1.94 1.86 1.78 1.80 1.66 1.48 1.40 1.34 1.33 1.30 1.35 1.48 1.49
0.96 1.07 1.13 1.18 1.22 1.28 1.32 1.45 1.64 1.78 1.77 1.70 1.70 1.72 1.74 1.93 2.22 2.43 2.47 2.52 2.56 2.54 2.53 2.40 2.22 2.12 2.00 1.81 1.94 2.02 2.00 2.02 1.91 1.98 1.95 1.83 1.71 1.58 1.48 1.40 1.36 1.40 1.49
0.94 1.02 1.06 1.14 1.23 1.28 1.29 1.32 1.35 1.41 1.45 1.53 1.57 1.56 1.59 1.64 1.87 2.08 2.18 2.36 2.59 2.63 2.69 2.62 2.38 2.27 2.21 1.99 2.05 2.16 2.24 2.20 2.09 1.97 1.99 1.92 1.89 1.78 1.64 1.50 1.40 1.37 1.39
0.88 0.95 1.00 1.01 1.06 1.17 1.28 1.33 1.22 1.19 1.27 1.38 1.37 1.30 1.33 1.50 1.71 1.84 1.82 2.11 2.46 2.66 2.68 2.64 2.51 2.48 2.26 2.06 1.92 1.90 2.09 2.33 2.34 2.29 2.22 1.97 1.87 1.73 1.69 1.70 1.53 1.38 1.36
0.88 0.91 0.86 0.88 0.97 1.00 1.25 1.29 1.12 1.06 1.11 1.22 1.30 1.28 1.17 1.19 1.31 1.44 1.48 1.62 1.88 2.10 2.42 2.63 2.58 2.48 2.18 2.02 1.97 1.95 1.98 2.11 2.29 2.23 2.27 2.30 2.22 2.12 2.00 1.89 1.87 1.73 1.60
0.85 0.85 0.83 0.82 0.85 0.97 1.09 0.99 1.01 0.97 1.02 1.10 1.19 1.28 1.19 1.09 1.24 1.28 1.40 1.47 1.43 1.48 1.79 2.18 2.35 2.38 2.36 2.23 2.16 2.02 1.96 2.01 2.07 2.11 2.31 2.36 2.33 2.32 2.24 2.23 2.33 2.13 1.93
0.84 0.83 0.87 0.87 0.85 0.92 0.96 0.85 0.94 0.90 0.90 0.97 1.11 1.23 1.28 1.22 1.27 1.40 1.35 1.36 1.28 1.25 1.49 1.52 1.75 2.15 2.31 2.40 2.31 2.31 2.42 2.36 2.19 2.09 2.14 2.21 2.08 2.11 2.17 2.20 2.36 2.27 2.12
0.85 0.90 0.95 0.95 0.86 0.85 0.94 0.88 0.92 0.87 0.87 0.91 0.95 1.05 1.15 1.12 1.36 1.50 1.39 1.50 1.49 1.37 1.56 1.67 1.75 1.86 2.05 2.26 2.32 2.26 2.26 2.33 2.28 2.16 2.00 1.90 1.81 1.85 1.97 2.00 2.03 2.13 2.12
0.66 0.80 0.84 0.85 0.87 0.84 1.07 1.02 1.00 0.88 0.89 0.98 1.01 0.99 1.18 1.22 1.40 1.39 1.25 1.45 1.50 1.46 1.44 1.48 1.48 1.51 1.47 1.67 1.95 2.01 2.16 2.22 2.15 2.06 1.81 1.72 1.67 1.75 1.83 1.68 1.52 1.53 1.56